{"data":{"norad_id":62117,"intl_designator":"2024-222D","name":"STARLINK-32521","alt_names":[],"object_type":"PAYLOAD","status":"ACTIVE","operator":null,"country":"US","launch_date":"2024-11-27","launch_site_code":"AFETR","launch_vehicle":null,"mission":null,"orbit_class":"UNKNOWN","rcs_meters":null,"size_class":null,"mass_kg":null,"dimensions":null,"purposes":["comms"],"wikipedia_slug":null,"has_3d_model":false,"image_url":null,"decayed_at":null,"tle_current":{"epoch":"2026-05-25T03:38:19.829760Z","epoch_age_seconds":62276,"freshness":"FRESH","line1":"1 62117U 24222D   26145.15161840  .00015547  00000+0  57304-3 0  9996","line2":"2 62117  43.0035  60.7211 0000874 260.4649  99.6104 15.27594439 84483","mean_motion":15.27594439,"eccentricity":8.74e-5,"inclination_deg":43.0035,"raan_deg":60.7211,"arg_perigee_deg":260.4649,"mean_anomaly_deg":99.6104,"bstar":0.00057304,"rev_number":8448,"period_min":94.265857693398,"perigee_km":482.40619693377,"apogee_km":483.60552470584,"semimajor_km":6861.1428608198,"source":"CELESTRAK","updated_at":"2026-05-25T13:38:19.562688Z"}}}